Tracking 21094 objects as of 12-Aug-2020
HD Live streaming from Space Station
objects crossing your sky now
Track the most recent launched group of Starlink satellites

SL-8 DEB

Track SL-8 DEB now!
10-day predictions


NORAD ID: 19831
Int'l Code: 1989-005C
Perigee: 713.9 km
Apogee: 732.1 km
Inclination: 74.1 °
Period: 99.1 minutes
Semi major axis: 7094 km
RCS: 0.0065 m2 (small)
Launch date: January 26, 1989
Source: Commonwealth of Independent States (former USSR) (CIS)
Launch site: PLESETSK MISSILE AND SPACE COMPLEX (PKMTR)

Note: This is SATELLITE DEBRIS
aabbcc
Your satellite tracking list
Your tracking list is empty




NASA's NSSDC Master Catalog

Two Line Element Set (TLE):
1 19831U 89005C   20224.87635630 +.00000151 +00000-0 +43266-4 0  9994
2 19831 074.0671 258.0749 0012870 103.9779 312.8326 14.52997018661675
Source of the keplerian elements: AFSPC